EHI
9 11 15 14 11 8 6 5 4 3 3 3 3 3 2 3 3 3 3 3 3 3 2 2 1 0 0 0 0 0 0 1 1 1 0 0 0 0 0 0 0 1 1
9 10 14 14 11 9 7 6 4 3 3 3 3 3 3 3 3 3 3 3 2 2 1 1 0 0 0 0 0 0 0 1 1 0 0 0 0 0 0 0 0 0 1
8 9 12 15 14 10 8 7 5 4 3 3 3 3 3 3 4 3 3 1 1 1 0 0 0 0 0 0 0 0 0 0 0 0 0 0 0 0 0 0 0 0 0
7 7 10 15 16 13 10 7 5 3 3 3 4 3 3 4 4 3 2 1 0 0 0 0 0 0 0 1 0 0 0 0 0 0 0 0 0 0 0 0 0 0 0
6 6 9 15 17 15 12 8 5 3 3 4 5 4 3 3 4 3 2 0 0 0 1 1 0 0 0 0 0 0 0 0 0 0 0 0 0 0 0 0 0 0 0
6 6 10 15 18 16 14 10 7 4 4 5 6 4 3 3 3 3 2 0 0 1 2 2 2 2 1 1 0 0 0 0 0 0 0 0 0 0 0 0 0 0 0
9 8 9 15 19 17 13 10 8 6 5 6 5 4 3 3 3 3 1 0 0 1 2 3 3 3 3 2 1 0 0 0 0 0 0 0 0 0 0 0 0 0 0
10 8 9 13 16 15 12 10 8 7 6 5 5 4 4 3 3 3 1 1 1 0 1 2 3 3 3 3 1 0 0 0 0 0 0 0 0 0 0 0 0 0 0
9 8 8 10 12 13 12 10 7 6 5 4 4 4 3 3 3 2 2 2 2 1 0 1 2 3 3 3 2 1 0 0 0 0 0 0 0 0 0 0 0 0 0
7 7 7 8 10 11 10 8 5 4 4 3 3 3 3 3 3 1 1 2 2 2 1 0 1 3 3 3 2 1 0 0 0 0 0 0 0 0 0 0 0 0 0
5 5 6 7 8 8 7 5 3 3 3 3 3 3 3 3 2 1 0 1 1 2 1 0 1 2 3 3 1 0 0 0 0 0 0 0 0 0 0 0 0 0 0
5 4 4 5 6 5 4 2 2 3 3 3 3 3 3 3 2 1 0 0 0 1 1 0 0 1 2 2 1 0 0 0 0 0 0 0 0 0 0 0 0 0 0
4 4 4 4 4 3 2 2 2 3 3 3 3 3 3 3 3 1 0 0 0 0 0 0 0 0 1 1 0 0 0 0 0 0 0 0 0 0 0 0 0 0 0
4 4 3 2 2 1 1 1 2 3 3 3 3 3 3 3 3 2 1 0 0 0 0 0 0 0 0 0 0 0 0 0 0 0 0 0 0 0 0 0 0 0 0
3 3 3 2 1 0 0 1 1 1 2 3 3 3 3 3 3 3 2 1 0 0 0 0 0 0 0 0 0 0 0 0 0 0 0 0 0 0 0 0 0 0 0
3 3 3 3 1 0 0 0 0 0 1 3 3 3 3 3 3 3 2 1 0 0 0 0 0 0 0 0 0 0 0 0 0 0 0 0 0 0 0 0 0 0 0
3 3 3 2 1 0 0 0 0 0 1 2 3 3 3 3 3 3 2 1 0 0 0 0 0 0 0 0 0 0 0 0 0 0 0 0 0 0 0 0 0 0 0
3 3 2 1 1 0 0 0 0 0 1 2 3 3 3 3 3 3 2 0 0 0 0 0 0 0 0 0 0 0 0 0 0 0 0 0 0 0 0 0 0 0 0
3 3 1 0 0 0 0 0 0 0 0 1 2 3 3 3 3 3 2 1 0 0 0 0 0 0 0 0 0 0 0 0 0 0 0 0 0 0 0 0 0 0 0
3 2 1 0 0 0 0 0 0 0 0 0 1 3 3 3 3 3 2 1 0 0 0 0 0 0 0 0 0 0 0 0 0 0 0 0 0 0 0 0 0 0 0
3 2 1 0 0 0 0 0 0 0 0 0 1 2 3 3 3 2 1 0 0 0 0 0 0 0 0 0 0 0 0 0 0 0 0 0 0 0 0 0 0 0 0
2 1 0 0 0 0 0 0 0 0 0 0 0 1 3 3 3 1 0 0 0 0 0 0 0 0 0 0 0 0 0 0 0 0 0 0 0 0 0 0 0 0 0
2 1 0 0 0 0 0 0 0 0 0 0 0 1 2 3 2 1 0 0 0 0 0 0 0 0 0 0 0 0 0 0 0 0 0 0 0 0 0 0 0 0 0
1 0 0 0 0 0 0 0 0 0 0 0 0 0 1 2 2 1 0 0 0 0 0 0 0 0 0 0 0 0 0 0 0 0 0 0 0 0 0 0 0 0 0
0 0 0 0 0 0 0 0 0 0 0 0 0 0 0 1 1 0 0 0 0 0 0 0 0 0 0 0 0 0 0 0 0 0 0 0 0 0 0 0 0 0 0
0 0 0 0 0 0 0 0 0 0 0 0 0 0 0 0 0 0 0 0 0 0 0 0 0 0 0 0 0 0 0 0 0 0 0 0 0 0 0 0 0 0 0
Wind_Speed
6 8 9 8 9 10 10 10 10 10 10 11 11 11 12 12 13 13 13 13 14 14 15 15 16 16 16 17 17 17 18 18 18 18 17 16 17 18 18 17 15 12 19
8 9 9 9 9 10 10 10 10 10 10 11 11 11 12 12 12 13 13 14 14 14 15 15 15 16 16 16 16 16 17 17 16 16 15 14 15 17 18 17 16 13 19
9 9 8 8 9 10 11 11 11 11 11 11 11 11 12 12 12 13 13 14 14 14 15 15 15 15 16 15 15 15 15 14 14 13 12 8 11 17 18 18 18 18 18
8 8 8 8 9 10 11 11 11 11 11 11 11 11 12 12 12 12 13 14 14 14 15 15 15 15 15 15 14 14 13 12 12 11 8 8 8 16 17 17 18 18 18
7 7 8 9 10 11 11 11 11 11 11 11 11 11 12 12 12 13 13 14 14 14 14 14 14 14 14 13 13 13 12 12 12 10 8 8 7 14 17 17 17 17 17
6 7 7 9 11 11 11 11 11 11 11 11 11 11 11 12 12 13 13 13 14 13 14 14 14 13 13 13 12 12 12 11 10 7 7 7 7 14 16 16 16 16 17
6 6 7 9 11 11 11 11 11 11 11 11 11 11 11 12 12 12 12 13 13 13 13 13 13 13 13 12 12 12 12 11 8 7 7 6 8 14 15 15 15 15 16
6 6 6 8 10 10 10 10 11 11 10 11 11 11 11 12 12 12 12 12 12 12 13 13 13 13 12 12 12 11 11 10 9 9 7 6 10 14 14 14 14 15 15
6 6 5 5 7 9 10 9 10 10 10 10 11 11 11 11 11 11 11 11 11 12 12 12 13 12 12 12 11 11 11 10 7 6 7 5 10 13 14 13 13 14 14
6 5 4 4 5 5 6 9 9 10 10 10 10 10 10 10 10 11 10 10 11 11 12 12 12 12 11 11 10 9 9 8 6 6 4 6 11 12 13 13 12 12 13
5 4 4 4 4 5 5 7 8 9 9 9 8 9 7 5 6 7 8 10 10 11 11 11 11 11 10 9 8 8 7 4 6 5 4 8 10 11 12 12 11 11 12
4 3 3 3 4 4 5 5 4 4 5 4 4 4 4 4 5 7 8 9 9 9 9 10 10 8 6 3 5 5 3 5 5 4 4 9 10 10 11 11 11 11 11
3 3 3 3 3 4 4 4 3 2 3 3 4 4 4 4 4 4 3 4 4 5 4 5 4 3 3 3 3 3 4 4 3 3 4 8 9 10 10 10 10 10 10
3 2 3 3 3 3 3 3 3 3 2 3 3 4 3 2 3 3 2 2 2 2 2 3 2 3 4 4 4 4 4 4 3 3 4 7 8 9 9 9 10 10 10
3 2 2 2 3 3 3 3 3 3 3 3 3 3 4 3 3 3 2 2 2 2 2 2 3 3 4 4 4 4 4 5 5 4 3 7 7 7 8 8 8 9 9
2 2 2 1 2 3 3 3 3 3 3 3 3 3 4 3 3 3 3 2 2 2 2 2 3 3 3 3 4 5 4 4 4 4 3 4 6 7 7 7 7 8 8
3 2 2 1 1 3 3 3 3 3 3 3 3 3 4 3 3 3 3 2 2 2 3 2 3 3 3 3 4 4 3 3 3 3 3 2 3 5 6 6 6 7 7
3 3 2 1 1 2 2 2 2 3 3 3 3 3 3 4 4 3 2 2 2 3 3 2 2 3 3 3 3 2 2 2 3 3 3 2 2 2 4 5 5 5 6
2 3 2 2 2 1 2 2 3 3 3 3 3 3 3 4 4 3 2 2 2 2 2 2 2 2 3 3 3 3 2 2 2 2 2 3 3 3 2 4 5 5 5
2 2 2 2 2 1 2 3 3 3 3 3 3 3 4 3 4 3 3 3 3 2 2 3 3 2 3 3 3 3 2 1 1 2 2 2 2 3 2 2 2 3 4
2 2 3 2 1 1 2 3 3 3 2 2 2 4 4 3 4 4 3 3 3 3 3 3 3 4 2 3 3 2 1 1 2 2 1 2 2 2 2 2 2 1 1
3 3 3 2 2 1 1 2 2 2 2 2 2 3 4 3 3 3 4 3 3 3 3 3 4 2 2 2 3 3 1 1 1 1 1 1 1 1 1 1 1 2 1
3 3 3 3 2 1 1 2 2 2 2 2 2 2 3 4 3 3 4 3 3 3 3 3 3 4 3 2 2 3 3 3 1 0 0 1 1 1 1 0 1 1 1
4 3 3 3 3 2 2 3 4 3 3 2 2 2 2 3 4 4 4 4 4 3 4 3 2 2 3 3 2 1 1 2 3 1 0 0 0 1 1 0 0 0 1
4 4 3 3 3 2 2 3 3 2 2 2 3 3 2 3 3 3 4 4 4 4 4 4 3 2 2 3 3 2 1 1 2 3 2 1 1 1 1 1 1 1 1
4 4 4 4 3 3 2 3 3 3 3 3 3 3 3 2 2 3 3 3 4 4 4 4 4 4 3 2 2 2 3 3 3 3 3 2 2 1 1 1 1 1 1
Wind_Direction
116 125 125 117 114 109 107 109 107 104 101 99 98 95 92 90 89 87 85 83 80 79 80 81 82 82 82 81 80 81 80 78 77 74 72 71 74 76 75 74 73 72 76
122 125 123 120 118 113 109 106 103 101 99 98 98 97 94 93 91 88 87 85 82 81 81 81 82 85 84 83 82 82 82 80 79 76 71 67 71 75 74 72 73 76 75
118 124 125 118 118 116 112 107 104 100 97 97 99 98 96 95 94 90 87 86 84 82 81 82 84 86 86 84 83 83 82 80 78 75 71 69 72 76 76 75 75 76 76
116 124 124 121 120 119 117 112 106 103 99 97 96 96 96 96 95 91 88 87 85 83 82 82 83 85 86 84 82 81 78 74 74 74 70 67 70 76 76 76 76 76 76
111 120 120 121 123 121 117 113 110 106 101 98 97 95 95 96 95 94 91 89 86 85 84 83 83 84 85 83 81 77 72 69 70 69 68 65 67 77 76 75 76 76 76
112 112 118 122 125 122 118 113 112 109 104 100 99 98 96 95 96 95 92 90 88 87 87 85 85 86 83 80 78 73 68 67 67 67 67 67 71 80 79 77 76 76 76
109 112 123 121 124 124 121 117 113 109 106 103 101 100 99 95 94 95 95 94 93 91 89 89 86 85 85 82 76 70 65 67 68 68 66 66 73 81 82 80 77 76 75
104 107 120 123 124 121 119 118 114 112 109 106 103 100 98 95 95 95 95 93 94 93 93 91 89 87 84 80 74 65 62 69 74 75 67 66 77 81 82 80 78 77 76
96 106 112 118 126 123 118 114 112 111 108 105 102 98 96 94 93 94 95 94 95 95 94 93 90 87 84 79 71 62 59 63 67 74 76 69 78 82 82 81 80 80 79
88 95 109 107 115 118 119 112 106 107 105 102 100 97 95 93 93 92 92 93 94 95 95 93 91 88 83 76 67 59 53 59 67 69 70 78 81 84 84 83 82 81 80
89 88 98 103 103 112 115 110 104 104 105 104 102 100 94 93 90 89 89 87 92 97 98 97 95 91 81 71 63 57 50 61 69 68 67 81 84 86 84 83 84 82 82
104 89 84 95 100 105 111 112 110 109 110 102 103 101 91 84 87 88 84 86 90 97 98 97 92 89 80 70 59 54 58 63 67 67 72 82 86 88 87 85 85 86 84
124 105 90 95 109 107 115 117 109 111 112 107 103 95 94 93 98 94 92 88 92 96 97 98 93 80 74 71 68 61 61 63 66 65 68 82 87 92 91 89 87 87 86
109 102 91 94 110 111 116 118 117 116 109 104 102 103 100 98 96 97 98 101 91 87 92 90 87 81 73 71 74 68 65 68 66 65 67 78 85 90 92 93 92 90 87
110 93 95 99 111 115 116 123 120 120 115 112 104 97 98 103 100 97 94 91 89 86 87 92 92 84 76 67 66 67 68 72 73 66 60 65 76 84 93 98 99 96 92
117 102 72 92 123 122 119 127 129 126 123 117 108 100 97 99 102 99 95 95 92 88 82 91 98 91 82 74 66 61 60 69 76 72 64 56 67 78 87 94 101 102 99
138 117 99 86 108 121 127 129 129 126 124 121 120 110 103 101 106 105 107 100 105 105 98 88 92 93 87 76 70 64 56 61 76 77 68 60 62 68 76 86 95 101 103
129 130 124 114 92 111 121 126 122 126 125 121 119 114 110 105 106 109 111 109 113 112 108 108 106 105 100 93 82 66 58 55 65 73 69 70 68 65 61 72 81 88 96
122 128 134 119 99 107 117 119 121 120 125 125 122 121 119 117 116 116 115 112 114 116 118 118 102 114 113 102 93 74 57 49 49 70 74 70 73 73 67 65 72 76 82
123 123 123 111 101 108 126 113 114 108 111 120 125 129 127 132 127 123 130 129 125 131 127 121 120 104 115 116 96 75 60 57 50 62 71 67 71 77 73 77 77 73 73
134 135 134 121 117 112 144 142 146 144 133 124 134 137 140 145 140 138 137 137 136 138 139 135 131 121 121 120 102 84 40 53 72 46 53 76 71 69 68 72 76 81 85
156 146 143 143 145 129 160 162 156 146 145 143 146 142 149 151 152 146 144 151 148 139 146 153 141 136 146 150 138 137 126 9 4 35 62 82 87 66 62 58 80 77 79
162 160 168 164 152 145 153 129 126 121 118 118 138 157 161 159 161 160 162 158 157 158 162 171 163 152 164 190 158 153 158 187 168 273 142 103 95 90 67 45 83 85 91
168 157 164 161 152 155 153 151 146 164 164 172 174 175 173 164 166 166 166 166 169 169 167 179 173 170 163 182 190 167 149 144 155 174 259 231 130 147 166 109 56 160 126
160 158 165 157 159 158 169 163 156 167 166 157 157 164 169 167 164 164 167 170 174 173 173 177 174 186 185 188 181 167 152 136 152 163 196 216 268 243 201 186 189 198 178
160 159 165 163 170 165 172 162 156 163 163 155 164 172 177 172 169 171 171 173 176 174 177 183 183 192 198 205 201 179 172 170 181 173 181 191 214 244 236 211 197 193 185